Overview Statistics Trail Chart Weather Telemetry Raw packets
 

This is the latest recevied weather packets stored in our database for station/object AB4KY. If no packets are shown the sender has not sent any weather packets the latest 10 day(s).

<< 1 2 3 4 5 6 >>
Time Temp. Humidity Pressure Rain* Wind** Luminosity Snow
1788615594 25° C 83% 1013.8 hPa 0 mm - 273 W/m² -
1788615290 24.44° C 86% 1013.8 hPa 0 mm - 240 W/m² -
1788614984 23.33° C 92% 1013.7 hPa 0 mm - 190 W/m² -
1788614679 22.22° C 96% 1013.8 hPa 0 mm - 196 W/m² -
1788614373 21.67° C 98% 1013.8 hPa 0 mm - 190 W/m² -
1788614079 21.11° C 99% 1013.6 hPa 0 mm - 186 W/m² -
1788613764 21.11° C 99% 1013.6 hPa 0 mm - 56 W/m² -
1788613463 21.11° C 99% 1013.7 hPa 0 mm - 51 W/m² -
1788613158 21.11° C 99% 1013.8 hPa 0 mm - 56 W/m² -
1788612853 21.11° C 99% 1013.9 hPa 0 mm - 56 W/m² -
1788612549 21.11° C 99% 1014.3 hPa 0 mm - 48 W/m² -
1788612245 21.11° C 99% 1014 hPa 0 mm - 44 W/m² -
1788611945 21.11° C 99% 1013.8 hPa 0 mm - 37 W/m² -
1788611641 21.11° C 99% 1013.9 hPa 0 mm - 23 W/m² -
1788611336 21.11° C 99% 1014 hPa 0 mm - 18 W/m² -
1788611035 21.67° C 99% 1014.1 hPa 0 mm - 16 W/m² -
1788610731 21.67° C 99% 1014.4 hPa 0 mm - 12 W/m² -
1788610427 21.67° C 99% 1014.2 hPa 0 mm - 7 W/m² -
1788610126 21.67° C 99% 1014.3 hPa 0 mm - 5 W/m² -
1788609821 21.67° C 99% 1014.1 hPa 0 mm - 1 W/m² -
1788609516 22.22° C 99% 1014.1 hPa 0 mm - 0 W/m² -
1788609215 22.22° C 99% 1014 hPa 0 mm - 0 W/m² -
1788608915 22.22° C 99% 1012.4 hPa 0 mm - 0 W/m² -
1788608614 22.22° C 99% 1012.2 hPa 0 mm - 0 W/m² -
1788608308 22.22° C 99% 1012.4 hPa 0 mm - 0 W/m² -

* Rain latest hour (hover to see other rain measurements)
** Current wind speed in m/s (hover to see current wind gust speed)